Tracking 28126 objects as of 1-Oct-2023
HD Live streaming from Space Station
objects crossing your sky now

DELTA 1 DEB

Track DELTA 1 DEB now!
10-day predictions


NORAD ID: 10763
Int'l Code: 1976-077BL
Perigee: 1,502.9 km
Apogee: 1,577.6 km
Inclination: 102.1 °
Period: 116.7 minutes
Semi major axis: 7911 km
RCS: 0.0794 m2 (small)
Launch date: July 29, 1976
Source: United States (US)
Launch site: AIR FORCE WESTERN TEST RANGE (AFWTR)

Note: This is SATELLITE DEBRIS
Your satellite tracking list
Your tracking list is empty




NASA's NSSDC Master Catalog

Two Line Element Set (TLE):
1 10763U 76077BL  23272.35054928  .00000003  00000-0  38261-3 0  9992
2 10763 102.0938 237.6668 0047200  35.9682 124.2433 12.33766902124157
Source of the keplerian elements: AFSPC